Miscellaneous Local Product
Issued by NWS North Platte, NE

Home | Current Version | Previous Version | Text Only | Print | Product List | Glossary On
Versions: 1 2 3 4 5 6 7 8 9 10 11 12 13 14 15 16 17 18 19 20 21 22 23 24 25 26 27 28 29 30 31 32 33 34 35 36 37 38 39 40 41 42 43 44 45 46 47 48 49 50
000
AXUS43 KLBF 041110
MISLBF


WESTERN AND NORTH CENTRAL NEBRASKA HOURLY WEATHER ROUNDUP
NATIONAL WEATHER SERVICE NORTH PLATTE NE
600 AM CDT MON MAY 04 2015

***STATIONS NOT REPORTING VARIABLES SUCH AS SKY/WEATHER OR
PRESSURE ARE PROVIDED BY THE NEBRASKA DEPARTMENT OF
ROADS...RAWS...AND APRS NETWORKS...AND ARE NOT UNDER
NATIONAL WEATHER SERVICE QUALITY CONTROL***

...OBSERVATIONS IN AND NEAR THE EASTERN PANHANDLE OF NEBRASKA...

CITY           SKY/WX    TMP DP  RH WIND       PRES   REMARKS
PINE RIDGE     LGT RAIN  49  33  54 E8        30.13R
CHADRON        CLOUDY    47  41  80 N5        30.13R
ALLIANCE       CLOUDY    47  41  80 SE9       30.11R
SIDNEY         CLOUDY    49  38  65 E6        30.10S
$$

...OBSERVATIONS IN NORTH CENTRAL NEBRASKA...

CITY           SKY/WX    TMP DP  RH WIND       PRES   REMARKS
VALENTINE      MOCLDY    49  31  49 NE5       30.12R
THEDFORD       MOCLDY    49  34  56 CALM      30.11F
AINSWORTH      PTCLDY    45  31  57 CALM      30.11R
O`NEILL        MOCLDY    51  34  51 NE9       30.08S
ORD            CLOUDY    55  29  36 NE7       30.05R
BROKEN BOW     CLOUDY    56  31  38 NE9       30.06R
$$

...OBSERVATIONS IN SOUTHWEST NEBRASKA AND FAR NORTHEAST COLORADO...

CITY           SKY/WX    TMP DP  RH WIND       PRES   REMARKS
WRAY           FAIR      53  39  61 NE5       30.05S
IMPERIAL       CLOUDY    52  36  54 NE10      30.03F
OGALLALA       CLOUDY    51  36  56 NE8       30.07S
NORTH PLATTE   CLOUDY    50  37  61 NE5       30.05F
MCCOOK         CLOUDY    58  38  47 E12       30.02R
LEXINGTON      CLOUDY    57  38  49 N16G23    29.99F
$$

...NORTH PLATTE AREA...

CITY           SKY/WX    TMP DP  RH WIND       PRES   REMARKS
AIRPORT        CLOUDY    50  37  61 NE5       30.05F
$$

...SOME WEATHER OBSERVATIONS FROM AROUND THE REGION...

CITY           SKY/WX    TMP DP  RH WIND       PRES   REMARKS
DENVER         CLOUDY    50  46  86 NE5       30.10R
LARAMIE        MOCLDY    42  39  89 S17       30.09R
CHEYENNE       CLOUDY    45  39  79 SE14      30.11R
SCOTTSBLUFF    CLOUDY    50  38  63 E8        30.10S
RAPID CITY     CLOUDY    46  41  82 W6        30.15R
PIERRE         MOCLDY    41  25  53 E7        30.13S
WINNER         FAIR      47  26  44 CALM      30.12R
SIOUX FALLS    PTCLDY    49  28  44 N12       30.09R
OMAHA          CLOUDY    58  50  75 N9        29.98R
GRAND ISLAND   CLOUDY    59  38  45 NE17G25   30.01F
KANSAS CITY    CLOUDY    62  55  77 S8        29.97F
WICHITA        MOCLDY    59  53  80 S3        29.97R
HAYS           CLOUDY    61  45  55 NW5       29.98S
LIBERAL        CLOUDY    61  54  77 NW7       29.94S
GOODLAND       LGT RAIN  51  46  83 NE7       30.04R
$$



USA.gov is the U.S. government's official web portal to all federal, state and local government web resources and services.